THORAD AGENA D DEB, 19351

Orbit data source: Space-Track

THORAD AGENA D DEB, 19351 is space debris in SSO originally from a launch on Wed, 08 Apr 1970 UTC launched from the Air Force Western Test Range (AFWTR). Debris objects in space refer to the collection of defunct objects orbiting the Earth. Examples of debris include non-operational satellites, rocket bodies, and fragments generated from explosions, collisions, or faulty payload assembly.

Loading next visibility...
Identifier
19351, 1970-025PW
Orbit
SSO
Country
Flag of USUS
Related business
Manufacturer
Unknown
Mission
Spacecraft
Bus & Motor
Unknown
Mass
Unknown
Launch date (UTC)
1970-04-08 (56 years ago)
Launch vehicle
Unknown
Launch site
Air Force Western Test Range (AFWTR)
Object type
Payload
Rocket body
Debris
Shape & HBR
Unknown shape, 0.1 m
Radar Cross Section
Small (<0.1 m²)

Expand to show TLE details & history
Last TLE update: 2 days ago

TLE from 2 days ago
0 THORAD AGENA D DEB
1 19351U 70025PW  25290.99202247  .00000647  00000-0  75722-3 0  9999
2 19351 100.1346 121.7500 0028744  89.7185  68.3760 13.72561778897488
Epoch: 2025-10-17T23:48Z
TLE epoch observation values (Epoch: 2025-10-17T23:48:30.741Z)
Latitude
21.25644°
Longitude
-78.14098°
Altitude
985.141 km
Speed
7.365 km/s
True Right ascension
20h 22m 51s
True Declination
21° 08' 39"
Sunlit
Object was in daylight at epoch
Visualization orbit readout
Latitude
Unknown
Longitude
Unknown
Altitude
Unknown
Speed
Unknown
Apparent Right ascension
Unknown
Apparent Declination
Unknown
Sunlit
N/A
Visualization observer readout
Local Sidereal Time
18:35:12
Azimuth
Unknown
Elevation
Unknown
Doppler factor
Unknown
Orbital elements
Apogee altitude
1,008.855 km
Perigee altitude
966.51 km
Semi-major axis
7,365.82 km
Eccentricity
0.00287
Inclination
100.1346°
RAAN
121.75°
Arg. of periapsis
89.7185°
True anomaly
68.68261°
Mean anomaly
68.376°
Eccentric anomaly
68.52926°
Mean motion
3.4333 °/min
Orbital period
104.86 mins
BSTAR
0.00075722
Loading maneuver chart data...
Computing Atmospheric mass density...

Documentation

Showing up to 5 results
|